Location: Fort Worth, Tx
(32.7431°N, 97.3695°W)
Time: 18:06:35
(UTC-04:00)

Transit 4A - Pass Details

Date: 07 March 2024
Orbit: 871 x 972 km, 66.8° (Epoch: 21 April)

Event Time Altitude Azimuth Distance (km) Brightness Sun altitude
Rises 00:16:29 0° 218° (SW) 3,611 - -56.1°
Reaches altitude 10° 00:19:07 10° 222° (SW) 2,656 - -56.5°
Maximum altitude 00:25:08 53° 299° (WNW) 1,132 - -57.2°
Drops below altitude 10° 00:31:02 10° 15° (NNE) 2,600 - -57.9°
Sets 00:33:36 0° 21° (NNE) 3,529 - -58.2°
